Weather in Tanrykulovo

Russia / Kurgan Oblast     54°54′18″N   63°09′27″E
temp.,
°C
wind,
m/s
gust,
m/s
humid.,
%
clouds,
%
prec.,
mm/h
press.,
hPa
HPBL,
m
27 january, thu
thu2723:00−13s51189100 0.0 1025169
02:00−13s61481100 0.0 1024236
05:00−13ssw61491100 0.0 1024278
08:00−11ssw51392100 0.0 1025286
11:00−9ssw51192100 0.0 1025312
14:00−7ssw51190100 0.0 1025372
17:00−9ssw389386 0.0 1025140
20:00−13sw369734 0.0 102676
28 january, fri
fri2823:00−18sw229998 0.0 102728
02:00−18sw2299100 0.0 102714
05:00−18ssw1199100 0.0 10279
08:00−18sse119981 0.0 10279
11:00−14sse229688 0.0 102744
14:00−10s129336 0.0 102693
17:00−14se1198100 0.0 10269
20:00−15e22100100 0.0 102511
29 january, sat
sat2923:00−15e22100100 0.1 102527
02:00−15e2299100 0.0 102426
05:00−15e349698 0.0 102452
08:00−15e3693100 0.0 102385
11:00−12ese3788100 0.0 1022157
14:00−10e2586100 0.0 1021168
17:00−11e3591100 0.0 102076
20:00−13e3691100 0.0 101986
30 january, sun
sun3023:00−15ese1195100 0.0 101711
02:00−16sse1197100 0.0 101610
05:00−19sw2299100 0.0 101615
08:00−22sw2210083 0.0 101627
11:00−16sw36935 0.0 1015126
14:00−12sw36875 0.0 1015150
17:00−14s37935 0.0 101598
20:00−13s4119614 0.0 1016160
31 january, mon
mon3123:00−9ssw5149561 0.0 1015256
02:00−2ssw7149073 0.0 1014611
05:00−4ssw7149087 0.0 1015474
08:00−6ssw6139272 0.0 1017331
11:00−6ssw6139393 0.0 1018384
14:00−5ssw61392100 0.0 1019464
17:00−5ssw61292100 0.0 1020358
20:00−6ssw51294100 0.0 1021308